Location: Bussy-Saint-Georges
(48.8410°N, 2.7017°E)
Time: 22:10:45
(UTC+00:00)

Cosmos 2278 Rocket - Pass Details

Date: 18 October 2021
Orbit: 841 x 845 km, 71.0° (Epoch: 07 December)

Event Time Altitude Azimuth Distance (km) Brightness Sun altitude
Rises 19:10:34 0° 335° (NNW) 3,417 5.9 -23.2°
Reaches altitude 10° 19:14:04 10° 357° (N) 2,478 4.8 -23.8°
Enters shadow 19:17:09 16° 30° (NNE) 2,078 4.1 -24.3°
